Latest Weather Observations for PORTABLE QFRM (Anduramba)

IDQ60801

Issued at 9:13 pm EST Saturday 9 May 2026 (issued every 10 minutes, with the page automatically refreshed every 10 minutes)

About weather observations | Map of weather stations | Latest weather observations for QLD | Other Formats
Station Details ID: 250115 Name: PORTABLE QFRM Lat: -27.19 Lon: 152.09 Height: 744.0 m

Portable automatic weather stations (PAWS) are operated by other organisations, such as Fire and Emergency Services, and are included here by agreement. Portable stations may be deployed to a location for a short period and their location may be subject to change without notice. Wind observations from these stations are provided from heights of either three (3) or ten (10) metres above ground level (AGL).

Data from the previous 72 hours. | See also: Recent months for locations in Queensland
Date/Time
EST
Temp
°C
App
Temp
°C
Dew
Point
°C
Rel
Hum
%
Delta-T
°C
Wind Press
QNH
hPa
Press
MSL
hPa
Rain since
9am
mm
Dir  Spd
km/h
Gust
km/h
Spd
kts
Gust
kts
09/09:00pm 13.3 12.1 10.3 82 1.6 ESE 7 9 4 5 - - 0.0
09/08:50pm 13.4 11.8 10.3 81 1.7 ESE 9 11 5 6 - - 0.0
09/08:40pm 13.4 11.8 10.3 81 1.7 ESE 9 11 5 6 - - 0.0
09/08:30pm 13.4 11.8 10.3 81 1.7 ESE 9 11 5 6 - - 0.0
09/08:20pm 13.5 12.0 10.4 81 1.7 E 9 9 5 5 - - 0.0
09/08:10pm 13.6 12.1 10.4 81 1.7 ESE 9 13 5 7 - - 0.0
09/08:00pm 13.6 12.1 10.4 81 1.7 ESE 9 11 5 6 - - 0.0
09/07:50pm 13.8 11.5 10.3 79 1.9 ESE 13 13 7 7 - - 0.0
09/07:40pm 13.8 11.8 10.3 79 1.9 ESE 11 15 6 8 - - 0.0
09/07:30pm 13.9 11.9 10.2 78 2.0 ESE 11 13 6 7 - - 0.0
09/07:20pm 14.0 12.0 10.1 77 2.1 ESE 11 15 6 8 - - 0.0
09/07:10pm 14.1 12.4 10.0 76 2.2 E 9 11 5 6 - - 0.0
09/07:00pm 14.3 12.2 9.7 74 2.5 E 11 15 6 8 - - 0.0
09/06:50pm 14.5 12.6 9.2 70 2.8 E 9 11 5 6 - - 0.0
09/06:40pm 15.0 13.0 8.5 65 3.4 ESE 9 11 5 6 - - 0.0
09/06:30pm 15.4 12.9 8.2 62 3.8 ESE 11 13 6 7 - - 0.0
09/06:20pm 15.6 12.6 7.6 59 4.1 SE 13 15 7 8 - - 0.0
09/06:10pm 15.6 13.0 7.7 59 4.1 SE 11 13 6 7 - - 0.0
09/06:00pm 15.6 13.4 7.7 59 4.1 SE 9 11 5 6 - - 0.0
09/05:50pm 15.7 13.4 7.6 58 4.2 SE 9 11 5 6 - - 0.0
09/05:40pm 15.7 13.8 7.7 59 4.2 SSE 7 9 4 5 - - 0.0
09/05:30pm 15.9 13.3 7.8 58 4.2 SE 11 13 6 7 - - 0.0
09/05:20pm 16.0 13.8 7.8 58 4.3 SE 9 9 5 5 - - 0.0
09/05:10pm 16.2 14.4 7.9 58 4.3 ESE 7 9 4 5 - - 0.0
09/05:00pm 16.4 14.6 8.0 57 4.4 ESE 7 9 4 5 - - 0.0
09/04:50pm 16.7 15.0 8.2 57 4.5 SE 7 9 4 5 - - 0.0
09/04:40pm 17.2 15.6 8.2 55 4.8 ESE 6 7 3 4 - - 0.0
09/04:30pm 17.5 16.0 8.3 54 4.9 ESE 6 9 3 5 - - 0.0
09/04:20pm 17.8 16.1 8.2 53 5.1 E 7 11 4 6 - - 0.0
09/04:10pm 17.9 15.7 7.9 52 5.3 E 9 11 5 6 - - 0.0
09/04:00pm 18.1 16.3 8.0 51 5.4 E 7 13 4 7 - - 0.0
09/03:50pm 18.4 16.6 7.8 50 5.6 E 7 13 4 7 - - 0.0
09/03:40pm 18.5 16.7 8.1 50 5.5 E 7 11 4 6 - - 0.0
09/03:30pm 18.7 16.8 7.7 48 5.8 E 7 11 4 6 - - 0.0
09/03:20pm 18.6 16.4 7.7 49 5.8 ESE 9 13 5 7 - - 0.0
09/03:10pm 18.8 16.9 7.5 47 6.0 E 7 9 4 5 - - 0.0
09/03:00pm 19.0 17.2 8.0 49 5.9 ESE 7 11 4 6 - - 0.0
09/02:50pm 18.8 16.7 8.4 51 5.6 E 9 11 5 6 - - 0.0
09/02:40pm 19.0 17.2 7.9 48 5.9 E 7 15 4 8 - - 0.0
09/02:30pm 19.0 17.1 7.6 47 6.0 ESE 7 15 4 8 - - 0.0
09/02:20pm 18.8 16.6 7.7 48 5.9 E 9 15 5 8 - - 0.0
09/02:10pm 18.9 16.7 8.0 49 5.8 ESE 9 11 5 6 - - 0.0
09/02:00pm 19.0 17.2 8.1 49 5.8 ESE 7 13 4 7 - - 0.0
09/01:50pm 18.5 15.9 7.9 50 5.6 ESE 11 15 6 8 - - 0.0
09/01:40pm 19.0 17.2 7.9 48 5.9 E 7 9 4 5 - - 0.0
09/01:30pm 18.8 16.6 6.4 44 6.4 E 7 11 4 6 - - 0.0
09/01:20pm 18.3 15.5 6.8 47 6.0 E 11 13 6 7 - - 0.0
09/01:10pm 18.2 15.4 6.8 47 5.9 SE 11 17 6 9 - - 0.0
09/01:00pm 18.2 15.9 7.4 49 5.7 SE 9 15 5 8 - - 0.0
09/12:50pm 18.1 15.1 7.6 50 5.5 ESE 13 17 7 9 - - 0.0
09/12:40pm 18.3 15.7 7.6 49 5.6 E 11 17 6 9 - - 0.0
09/12:30pm 18.1 15.5 7.6 50 5.5 ESE 11 17 6 9 - - 0.0
09/12:20pm 17.9 15.4 8.0 52 5.2 E 11 17 6 9 - - 0.0
09/12:10pm 18.1 15.8 7.4 49 5.6 ESE 9 17 5 9 - - 0.0
09/12:00pm 17.7 14.7 7.5 51 5.3 E 13 15 7 8 - - 0.0
09/11:50am 17.5 14.3 7.0 50 5.4 E 13 17 7 9 - - 0.0
09/11:40am 17.3 13.9 7.7 53 5.0 E 15 20 8 11 - - 0.0
09/11:30am 17.3 13.9 7.5 52 5.1 E 15 19 8 10 - - 0.0
09/11:20am 17.2 13.9 7.9 54 4.9 ESE 15 20 8 11 - - 0.0
09/11:10am 17.1 13.5 8.2 56 4.7 ESE 17 22 9 12 - - 0.0
09/11:00am 17.1 13.4 8.1 55 4.8 ESE 17 19 9 10 - - 0.0
09/10:50am 16.9 12.8 8.0 55 4.7 ESE 19 20 10 11 - - 0.0
09/10:40am 16.7 12.7 8.1 57 4.5 ESE 19 22 10 12 - - 0.0
09/10:30am 16.8 13.1 8.1 56 4.6 ESE 17 24 9 13 - - 0.0
09/10:20am 16.2 11.9 7.7 57 4.4 ESE 20 26 11 14 - - 0.0
09/10:10am 16.4 12.3 7.9 57 4.5 ESE 19 26 10 14 - - 0.0
09/10:00am 16.4 12.9 7.4 55 4.7 SE 15 20 8 11 - - 0.0
09/09:50am 16.3 13.2 7.3 55 4.7 SE 13 17 7 9 - - 0.0
09/09:40am 15.7 11.9 7.5 58 4.2 SE 17 20 9 11 - - 0.0
09/09:30am 15.0 10.4 6.3 56 4.4 SE 20 26 11 14 - - 0.0
09/09:20am 15.1 10.6 6.2 55 4.5 SE 19 20 10 11 - - 0.0
09/09:10am 14.8 10.1 6.2 56 4.3 SE 20 24 11 13 - - 0.0
09/09:00am 14.7 9.6 6.0 56 4.3 SE 22 26 12 14 - - 0.0
09/08:50am 14.3 9.5 5.5 55 4.3 SE 20 24 11 13 - - 0.0
09/08:40am 14.2 9.6 5.4 55 4.3 SE 19 22 10 12 - - 0.0
09/08:30am 13.8 8.6 5.6 57 4.0 SE 22 26 12 14 - - 0.0
09/08:20am 14.0 8.5 6.0 58 4.0 SE 24 30 13 16 - - 0.0
09/08:10am 13.9 8.3 5.5 57 4.1 SE 24 26 13 14 - - 0.0
09/08:00am 13.6 8.1 5.9 59 3.8 SE 24 26 13 14 - - 0.0
09/07:50am 13.2 7.3 5.6 60 3.7 SSE 26 28 14 15 - - 0.0
09/07:40am 12.8 6.8 5.3 60 3.6 SSE 26 28 14 15 - - 0.0
09/07:30am 12.5 6.3 4.4 57 3.8 SSE 26 28 14 15 - - 0.0
09/07:20am 12.1 5.8 3.9 57 3.8 SSE 26 30 14 16 - - 0.0
09/07:10am 11.9 5.1 3.1 55 4.0 SSE 28 30 15 16 - - 0.0
09/07:00am 11.7 4.8 2.4 53 4.2 SSE 28 30 15 16 - - 0.0
09/06:50am 11.6 4.6 2.1 52 4.3 SSE 28 30 15 16 - - 0.0
09/06:40am 11.1 4.5 1.9 53 4.1 SSE 26 28 14 15 - - 0.0
09/06:30am 11.1 3.6 1.2 50 4.3 S 30 32 16 17 - - 0.0
09/06:20am 11.1 3.5 0.7 48 4.5 S 30 32 16 17 - - 0.0
09/06:10am 11.0 3.8 0.6 48 4.5 S 28 30 15 16 - - 0.0
09/06:00am 10.8 4.4 0.9 50 4.3 SSE 24 26 13 14 - - 0.0
09/05:50am 10.9 4.8 0.5 48 4.5 SSE 22 24 12 13 - - 0.0
09/05:40am 11.1 4.7 0.7 48 4.5 SSE 24 24 13 13 - - 0.0
09/05:30am 11.0 4.9 0.6 48 4.5 SSE 22 24 12 13 - - 0.0
09/05:20am 11.2 5.5 0.6 48 4.6 SSE 20 22 11 12 - - 0.0
09/05:10am 11.0 5.5 0.5 48 4.5 SSE 19 20 10 11 - - 0.0
09/05:00am 11.1 5.4 0.4 47 4.6 SSE 20 22 11 12 - - 0.0
09/04:50am 11.0 5.3 0.7 49 4.4 S 20 22 11 12 - - 0.0
09/04:40am 11.1 5.0 0.4 47 4.6 S 22 24 12 13 - - 0.0
09/04:30am 10.7 4.6 0.4 49 4.4 S 22 24 12 13 - - 0.0
09/04:20am 10.6 4.6 0.8 50 4.2 S 22 24 12 13 - - 0.0
09/04:10am 10.4 4.3 0.3 49 4.3 S 22 24 12 13 - - 0.0
09/04:00am 9.9 3.9 1.1 54 3.8 S 22 24 12 13 - - 0.0
09/03:50am 9.5 3.5 0.9 55 3.7 S 22 22 12 12 - - 0.0
09/03:40am 9.2 3.2 1.1 57 3.5 SSW 22 24 12 13 - - 0.0
09/03:30am 9.2 3.6 1.3 57 3.4 SSW 20 24 11 13 - - 0.0
09/03:20am 9.2 3.2 1.3 57 3.4 SSW 22 24 12 13 - - 0.0
09/03:10am 9.4 3.4 1.3 57 3.5 SSW 22 24 12 13 - - 0.0
09/03:00am 9.6 3.6 1.2 56 3.6 SSW 22 24 12 13 - - 0.0
09/02:50am 9.7 3.7 1.2 55 3.7 SW 22 24 12 13 - - 0.0
09/02:40am 9.6 3.3 1.3 56 3.6 SW 24 26 13 14 - - 0.0
09/02:30am 9.5 3.2 1.4 57 3.5 SW 24 26 13 14 - - 0.0
09/02:20am 9.7 3.0 1.2 55 3.7 SW 26 28 14 15 - - 0.0
09/02:10am 9.7 3.0 1.2 55 3.7 WSW 26 28 14 15 - - 0.0
09/02:00am 9.6 2.9 1.3 56 3.6 WSW 26 30 14 16 - - 0.0
09/01:50am 9.7 2.6 1.3 56 3.6 WSW 28 30 15 16 - - 0.0
09/01:40am 9.9 2.8 1.3 55 3.7 WSW 28 30 15 16 - - 0.0
09/01:30am 10.1 2.6 1.3 54 3.8 WSW 30 32 16 17 - - 0.0
09/01:20am 10.0 2.5 1.3 54 3.8 WSW 30 32 16 17 - - 0.0
09/01:10am 9.9 2.4 1.2 54 3.8 WSW 30 33 16 18 - - 0.0
09/01:00am 9.9 2.1 1.4 55 3.7 WSW 32 33 17 18 - - 0.0
09/12:50am 9.8 2.3 1.3 55 3.7 WSW 30 32 16 17 - - 0.0
09/12:40am 9.8 2.3 1.5 56 3.6 WSW 30 33 16 18 - - 0.0
09/12:30am 9.7 2.2 1.5 56 3.6 WSW 30 32 16 17 - - 0.0
09/12:20am 9.9 2.1 1.7 56 3.6 WSW 32 35 17 19 - - 0.0
09/12:10am 10.1 2.7 1.6 55 3.7 WSW 30 33 16 18 - - 0.0
09/12:00am 10.3 2.8 1.5 54 3.8 WSW 30 32 16 17 - - 0.0
 
Date/Time
EST
Temp
°C
App
Temp
°C
Dew
Point
°C
Rel
Hum
%
Delta-T
°C
Wind Press
QNH
hPa
Press
MSL
hPa
Rain since
9am
mm
Dir  Spd
km/h
Gust
km/h
Spd
kts
Gust
kts
08/11:50pm 10.4 3.0 1.7 55 3.8 WSW 30 35 16 19 - - 0.0
08/11:40pm 10.5 3.1 1.6 54 3.9 WSW 30 33 16 18 - - 0.0
08/11:30pm 10.6 3.2 1.7 54 3.9 WSW 30 33 16 18 - - 0.0
08/11:20pm 10.6 3.1 1.5 53 4.0 WSW 30 33 16 18 - - 0.0
08/11:10pm 10.7 3.2 1.5 53 4.0 WSW 30 32 16 17 - - 0.0
08/11:00pm 10.6 3.1 1.5 53 4.0 WSW 30 33 16 18 - - 0.0
08/10:50pm 10.6 3.1 1.5 53 4.0 WSW 30 32 16 17 - - 0.0
08/10:40pm 10.7 3.2 1.4 52 4.1 WSW 30 35 16 19 - - 0.0
08/10:30pm 10.8 3.0 1.4 52 4.1 WSW 32 37 17 20 - - 0.0
08/10:20pm 10.8 2.9 1.3 52 4.2 WSW 32 32 17 17 - - 0.0
08/10:10pm 10.8 2.7 1.3 52 4.2 WSW 33 35 18 19 - - 0.0
08/10:00pm 11.0 2.9 1.2 51 4.3 W 33 37 18 20 - - 0.0
08/09:50pm 11.2 2.7 1.2 50 4.4 W 35 41 19 22 - - 0.0
08/09:40pm 11.3 2.8 1.2 50 4.4 W 35 37 19 20 - - 0.0
08/09:30pm 11.5 2.7 1.2 49 4.5 W 37 43 20 23 - - 0.0
08/09:20pm 11.6 2.4 1.1 48 4.6 W 39 43 21 23 - - 0.0
08/09:10pm 11.6 2.8 1.2 49 4.6 W 37 39 20 21 - - 0.0
08/09:00pm 11.8 3.0 1.1 48 4.7 W 37 39 20 21 - - 0.0
08/08:50pm 12.0 3.5 1.1 47 4.8 W 35 39 19 21 - - 0.0
08/08:40pm 12.2 3.4 1.1 46 4.9 W 37 41 20 22 - - 0.0
08/08:30pm 12.4 3.5 0.9 45 5.1 W 37 39 20 21 - - 0.0
08/08:20pm 12.4 4.3 0.8 45 5.1 W 33 39 18 21 - - 0.0
08/08:10pm 12.5 4.3 0.3 43 5.3 W 33 41 18 22 - - 0.0
08/08:00pm 12.5 3.2 0.3 43 5.3 W 39 44 21 24 - - 0.0
08/07:50pm 12.6 3.6 0.1 42 5.4 W 37 39 20 21 - - 0.0
08/07:40pm 12.5 3.5 0.0 42 5.4 W 37 43 20 23 - - 0.0
08/07:30pm 12.6 3.2 -0.1 41 5.5 W 39 43 21 23 - - 0.0
08/07:20pm 12.8 3.7 -0.3 40 5.6 W 37 41 20 22 - - 0.0
08/07:10pm 12.8 4.5 -0.5 40 5.7 W 33 39 18 21 - - 0.0
08/07:00pm 12.9 4.5 -0.7 39 5.8 W 33 39 18 21 - - 0.0
08/06:50pm 13.1 4.7 -0.8 38 5.9 W 33 39 18 21 - - 0.0
08/06:40pm 13.2 4.0 -1.3 36 6.1 W 37 39 20 21 - - 0.0
08/06:30pm 13.4 4.6 -1.3 36 6.2 WNW 35 41 19 22 - - 0.0
08/06:20pm 13.5 4.7 -1.3 36 6.3 WNW 35 41 19 22 - - 0.0
08/06:10pm 13.8 4.6 -1.1 36 6.3 WNW 37 41 20 22 - - 0.0
08/06:00pm 14.0 5.2 -1.3 35 6.5 WNW 35 41 19 22 - - 0.0
08/05:50pm 14.2 5.0 -1.0 35 6.5 WNW 37 41 20 22 - - 0.0
08/05:40pm 14.3 4.4 -1.2 34 6.6 WNW 41 44 22 24 - - 0.0
08/05:30pm 14.5 5.3 -1.3 33 6.7 WNW 37 44 20 24 - - 0.0
08/05:20pm 14.8 6.0 -1.2 33 6.9 WNW 35 39 19 21 - - 0.0
08/05:10pm 15.2 6.8 -0.8 33 6.9 WNW 33 41 18 22 - - 0.0
08/05:00pm 15.6 7.2 -0.7 33 7.1 WNW 33 37 18 20 - - 0.0
08/04:50pm 16.0 7.8 -0.7 32 7.3 WNW 32 35 17 19 - - 0.0
08/04:40pm 16.3 7.9 -0.8 31 7.5 WNW 33 39 18 21 - - 0.0
08/04:30pm 16.6 8.9 -0.4 31 7.5 WNW 30 32 16 17 - - 0.0
08/04:20pm 16.5 8.8 -0.3 32 7.5 WNW 30 33 16 18 - - 0.0
08/04:10pm 16.9 9.5 -0.6 30 7.7 WNW 28 35 15 19 - - 0.0
08/04:00pm 16.9 9.1 -0.5 30 7.7 WNW 30 33 16 18 - - 0.0
08/03:50pm 16.9 9.2 -0.3 31 7.7 WNW 30 35 16 19 - - 0.0
08/03:40pm 17.0 10.1 0.3 32 7.5 WNW 26 35 14 19 - - 0.0
08/03:30pm 16.9 9.6 -0.3 31 7.7 WNW 28 32 15 17 - - 0.0
08/03:20pm 17.0 10.0 -0.6 30 7.8 WNW 26 32 14 17 - - 0.0
08/03:10pm 17.4 10.0 -0.8 29 8.1 WNW 28 30 15 16 - - 0.0
08/03:00pm 17.4 11.2 -0.6 29 8.0 WNW 22 28 12 15 - - 0.0
08/02:50pm 17.2 10.2 -0.2 30 7.8 WNW 26 33 14 18 - - 0.0
08/02:40pm 17.3 9.9 -0.8 29 8.0 WNW 28 32 15 17 - - 0.0
08/02:30pm 17.5 10.8 -1.3 28 8.2 WNW 24 33 13 18 - - 0.0
08/02:20pm 17.2 11.3 -1.1 28 8.0 W 20 28 11 15 - - 0.0
08/02:10pm 17.3 11.2 -2.0 26 8.3 WNW 20 26 11 14 - - 0.0
08/02:00pm 17.2 11.2 -1.4 28 8.1 W 20 24 11 13 - - 0.0
08/01:50pm 16.8 9.2 -2.2 27 8.1 WNW 28 30 15 16 - - 0.0
08/01:40pm 17.0 11.0 -1.9 27 8.2 WNW 20 26 11 14 - - 0.0
08/01:30pm 16.9 10.4 -2.7 26 8.3 WNW 22 28 12 15 - - 0.0
08/01:20pm 17.0 11.1 -2.6 26 8.3 WNW 19 20 10 11 - - 0.0
08/01:10pm 16.1 9.9 -3.0 27 8.0 W 20 26 11 14 - - 0.0
08/01:00pm 16.5 11.1 -1.4 29 7.8 W 17 24 9 13 - - 0.0
08/12:50pm 16.4 10.9 -2.0 28 7.9 WNW 17 22 9 12 - - 0.0
08/12:40pm 16.5 11.5 -1.3 29 7.7 WNW 15 19 8 10 - - 0.0
08/12:30pm 16.0 11.0 -1.3 30 7.5 WNW 15 20 8 11 - - 0.0
08/12:20pm 15.7 10.1 -2.7 28 7.7 W 17 20 9 11 - - 0.0
08/12:10pm 15.0 9.0 -2.8 29 7.4 W 19 20 10 11 - - 0.0
08/12:00pm 15.1 9.5 -2.6 29 7.4 W 17 24 9 13 - - 0.0
08/11:50am 15.3 9.7 -2.7 29 7.5 W 17 22 9 12 - - 0.0
08/11:40am 15.5 10.6 -3.0 28 7.7 W 13 17 7 9 - - 0.0
08/11:30am 14.8 9.8 -0.9 34 6.8 WSW 15 22 8 12 - - 0.0
08/11:20am 14.6 9.5 -2.2 31 7.0 W 15 20 8 11 - - 0.0
08/11:10am 14.0 8.4 -3.0 30 7.0 WNW 17 19 9 10 - - 0.0
08/11:00am 13.7 8.6 -1.8 34 6.5 WNW 15 19 8 10 - - 0.0
08/10:50am 13.8 8.7 -2.2 33 6.7 WNW 15 17 8 9 - - 0.0
08/10:40am 13.5 9.6 -1.4 35 6.3 W 9 17 5 9 - - 0.0
08/10:30am 12.9 8.7 -1.2 37 5.9 WNW 11 17 6 9 - - 0.0
08/10:20am 12.4 8.4 -1.9 37 5.9 W 9 15 5 8 - - 0.0
08/10:10am 11.6 7.1 -3.4 35 5.9 W 11 15 6 8 - - 0.0
08/10:00am 11.9 7.8 -2.9 35 5.9 W 9 11 5 6 - - 0.0
08/09:50am 11.6 6.8 -2.8 36 5.8 W 13 15 7 8 - - 0.0
08/09:40am 11.1 6.7 -2.8 37 5.5 W 11 13 6 7 - - 0.0
08/09:30am 10.2 5.5 -2.1 42 4.9 W 13 17 7 9 - - 0.0
08/09:20am 10.1 4.4 -3.9 37 5.4 WSW 17 22 9 12 - - 0.0
08/09:10am 10.0 3.9 -4.0 37 5.4 WSW 19 20 10 11 - - 0.0
08/09:00am 9.7 3.4 -4.3 37 5.3 WSW 20 22 11 12 - - 0.0
08/08:50am 9.3 2.6 -4.6 37 5.2 SW 22 30 12 16 - - 0.0
08/08:40am 8.9 0.6 -5.2 36 5.2 WSW 30 33 16 18 - - 0.0
08/08:30am 8.7 0.4 -5.1 37 5.1 WSW 30 33 16 18 - - 0.0
08/08:20am 8.6 0.6 -5.3 37 5.1 WSW 28 32 15 17 - - 0.0
08/08:10am 8.6 -0.2 -6.4 34 5.3 WSW 32 33 17 18 - - 0.0
08/08:00am 7.8 -0.6 -6.4 36 5.0 WSW 30 32 16 17 - - 0.0
08/07:50am 7.2 -1.1 -5.2 41 4.5 WSW 30 32 16 17 - - 0.0
08/07:40am 7.1 -0.9 -5.3 41 4.5 WSW 28 33 15 18 - - 0.0
08/07:30am 6.8 -1.2 -6.0 39 4.5 WSW 28 32 15 17 - - 0.0
08/07:20am 6.6 -1.3 -5.2 42 4.2 WSW 28 32 15 17 - - 0.0
08/07:10am 6.1 -1.9 -5.7 42 4.1 WSW 28 32 15 17 - - 0.0
08/07:00am 5.9 -2.2 -6.3 41 4.2 WSW 28 30 15 16 - - 0.0
08/06:50am 5.4 -3.0 -5.5 45 3.8 WSW 30 32 16 17 - - 0.0
08/06:40am 5.3 -2.7 -5.7 45 3.8 WSW 28 33 15 18 - - 0.0
08/06:30am 5.3 -3.1 -6.0 44 3.9 WSW 30 32 16 17 - - 0.0
08/06:20am 5.1 -3.2 -5.3 47 3.6 WSW 30 32 16 17 - - 0.0
08/06:10am 5.1 -3.2 -5.3 47 3.6 WSW 30 33 16 18 - - 0.0
08/06:00am 5.1 -3.6 -5.2 47 3.6 WSW 32 35 17 19 - - 0.0
08/05:50am 5.1 -3.8 -5.0 48 3.6 WSW 33 35 18 19 - - 0.0
08/05:40am 5.1 -2.8 -5.0 48 3.6 WSW 28 35 15 19 - - 0.0
08/05:30am 5.2 -3.1 -4.7 49 3.5 WSW 30 32 16 17 - - 0.0
08/05:20am 5.2 -2.7 -4.6 49 3.5 WSW 28 32 15 17 - - 0.0
08/05:10am 5.0 -2.9 -4.5 50 3.4 WSW 28 32 15 17 - - 0.0
08/05:00am 5.0 -2.8 -3.9 52 3.2 WSW 28 32 15 17 - - 0.0
08/04:50am 5.3 -2.5 -4.0 51 3.4 W 28 35 15 19 - - 0.0
08/04:40am 5.5 -2.7 -4.1 50 3.5 WSW 30 33 16 18 - - 0.0
08/04:30am 5.4 -2.4 -4.1 50 3.4 WSW 28 35 15 19 - - 0.0
08/04:20am 5.6 -3.1 -3.8 51 3.4 WSW 33 37 18 20 - - 0.0
08/04:10am 5.9 -3.3 -4.1 48 3.6 WSW 35 39 19 21 - - 0.0
08/04:00am 6.0 -3.5 -4.0 48 3.7 WSW 37 43 20 23 - - 0.0
08/03:50am 6.1 -4.2 -3.9 48 3.7 WSW 41 44 22 24 - - 0.0
08/03:40am 6.3 -3.6 -4.1 47 3.8 WSW 39 44 21 24 - - 0.0
08/03:30am 6.3 -2.3 -4.5 46 3.9 WSW 32 35 17 19 - - 0.0
08/03:20am 6.2 -1.2 -3.9 48 3.7 SW 26 32 14 17 - - 0.0
08/03:10am 6.2 -1.9 -3.5 50 3.6 WSW 30 33 16 18 - - 0.0
08/03:00am 6.3 -1.5 -3.6 49 3.7 WSW 28 33 15 18 - - 0.0
08/02:50am 6.1 -0.5 -3.4 50 3.5 WSW 22 30 12 16 - - 0.0
08/02:40am 6.2 -0.7 -2.9 52 3.4 WSW 24 30 13 16 - - 0.0
08/02:30am 6.4 -0.9 -2.6 52 3.4 WSW 26 32 14 17 - - 0.0
08/02:20am 6.7 -1.9 -2.8 51 3.6 W 33 43 18 23 - - 0.0
08/02:10am 6.7 -2.7 -2.7 51 3.6 WSW 37 41 20 22 - - 0.0
08/02:00am 6.8 -2.5 -2.4 52 3.5 WSW 37 41 20 22 - - 0.0
08/01:50am 7.0 -2.7 -2.1 52 3.5 WSW 39 41 21 22 - - 0.0
08/01:40am 7.2 -3.4 -1.8 53 3.5 WSW 44 46 24 25 - - 0.0
08/01:30am 7.3 -3.3 -2.1 51 3.7 WSW 44 48 24 26 - - 0.0
08/01:20am 7.4 -3.5 -1.6 53 3.6 WSW 46 50 25 27 - - 0.0
08/01:10am 7.8 -3.9 -1.2 53 3.6 W 50 54 27 29 - - 0.0
08/01:00am 8.1 -4.0 -1.4 51 3.8 W 52 56 28 30 - - 0.0
08/12:50am 8.1 -3.5 -0.5 54 3.5 W 50 54 27 29 - - 0.0
08/12:40am 8.2 -1.8 0.7 59 3.2 W 43 50 23 27 - - 0.0
08/12:30am 8.2 -0.2 1.6 63 2.8 WSW 35 41 19 22 - - 0.0
08/12:20am 8.4 0.6 2.0 64 2.8 WSW 32 37 17 20 - - 0.0
08/12:10am 8.5 1.1 1.9 63 2.9 WSW 30 35 16 19 - - 0.0
08/12:00am 8.8 1.1 2.4 64 2.8 W 32 35 17 19 - - 0.0
 
Date/Time
EST
Temp
°C
App
Temp
°C
Dew
Point
°C
Rel
Hum
%
Delta-T
°C
Wind Press
QNH
hPa
Press
MSL
hPa
Rain since
9am
mm
Dir  Spd
km/h
Gust
km/h
Spd
kts
Gust
kts
07/11:50pm 9.0 0.8 2.5 64 2.9 W 35 43 19 23 - - 0.0
07/11:40pm 9.1 1.5 2.6 64 2.9 W 32 41 17 22 - - 0.0
07/11:30pm 9.3 1.5 2.9 64 2.9 W 33 37 18 20 - - 0.0
07/11:20pm 9.4 2.3 3.7 67 2.6 W 30 33 16 18 - - 0.0
07/11:10pm 9.6 2.0 4.0 68 2.6 W 33 37 18 20 - - 0.0
07/11:00pm 9.7 2.2 4.3 69 2.5 W 33 37 18 20 - - 0.0
07/10:50pm 9.9 2.1 4.7 70 2.4 W 35 41 19 22 - - 0.0
07/10:40pm 10.0 3.6 5.0 71 2.4 W 28 32 15 17 - - 0.0
07/10:30pm 10.3 3.5 4.9 69 2.5 W 30 35 16 19 - - 0.0
07/10:20pm 10.6 2.8 4.7 67 2.8 W 35 41 19 22 - - 0.0
07/10:10pm 10.9 2.7 4.5 64 3.0 W 37 44 20 24 - - 0.0
07/10:00pm 11.3 3.4 4.3 62 3.3 W 35 43 19 23 - - 0.0
07/09:50pm 11.7 3.4 4.2 60 3.5 W 37 46 20 25 - - 0.0
07/09:40pm 11.8 3.1 4.1 59 3.6 W 39 52 21 28 - - 0.0
07/09:30pm 12.0 3.3 4.0 58 3.8 W 39 44 21 24 - - 0.0
07/09:20pm 12.2 2.5 3.9 57 3.9 W 44 52 24 28 - - 0.0
07/09:10pm 12.4 2.7 3.7 55 4.1 W 44 48 24 26 - - 0.0
07/09:00pm 12.6 2.8 3.5 54 4.2 W 44 52 24 28 - - 0.0
07/08:50pm 12.7 3.1 3.3 52 4.4 W 43 52 23 28 - - 0.0
07/08:40pm 12.9 3.2 3.1 51 4.5 W 43 46 23 25 - - 0.0
07/08:30pm 12.9 4.0 3.2 51 4.5 W 39 46 21 25 - - 0.0
07/08:20pm 13.1 4.6 3.0 50 4.7 WNW 37 44 20 24 - - 0.0
07/08:10pm 13.1 4.9 2.8 49 4.7 WNW 35 44 19 24 - - 0.0
07/08:00pm 13.2 5.4 2.7 49 4.8 W 33 39 18 21 - - 0.0
07/07:50pm 13.5 5.6 2.5 47 5.1 W 33 35 18 19 - - 0.0
07/07:40pm 13.4 6.5 2.8 48 4.9 W 28 35 15 19 - - 0.0
07/07:30pm 13.6 7.3 3.6 51 4.7 W 26 33 14 18 - - 0.0
07/07:20pm 13.9 7.2 3.4 49 4.9 W 28 35 15 19 - - 0.0
07/07:10pm 14.0 6.5 3.2 48 5.1 WNW 32 39 17 21 - - 0.0
07/07:00pm 14.3 5.4 3.0 46 5.3 WNW 39 41 21 22 - - 0.0
07/06:50pm 14.5 5.6 3.1 46 5.3 WNW 39 43 21 23 - - 0.0
07/06:40pm 14.6 5.7 3.3 46 5.3 W 39 46 21 25 - - 0.0
07/06:30pm 14.8 5.9 3.2 45 5.5 W 39 44 21 24 - - 0.0
07/06:20pm 14.9 6.1 3.4 46 5.4 WNW 39 46 21 25 - - 0.0
07/06:10pm 15.2 6.0 3.3 45 5.6 WNW 41 48 22 26 - - 0.0
07/06:00pm 15.4 6.6 3.5 45 5.7 WNW 39 46 21 25 - - 0.0
07/05:50pm 15.6 6.8 3.6 44 5.7 WNW 39 44 21 24 - - 0.0
07/05:40pm 15.8 6.3 3.7 44 5.8 WNW 43 48 23 26 - - 0.0
07/05:30pm 15.9 6.4 3.7 44 5.9 WNW 43 48 23 26 - - 0.0
07/05:20pm 16.0 6.2 3.4 43 6.0 WNW 44 48 24 26 - - 0.0
07/05:10pm 16.1 6.9 3.3 42 6.1 WNW 41 44 22 24 - - 0.0
07/05:00pm 16.4 6.8 3.3 41 6.3 WNW 43 44 23 24 - - 0.0
07/04:50pm 16.6 7.4 3.5 41 6.3 WNW 41 46 22 25 - - 0.0
07/04:40pm 16.9 7.4 3.7 41 6.4 WNW 43 48 23 26 - - 0.0
07/04:30pm 17.4 7.8 3.5 39 6.7 WNW 43 48 23 26 - - 0.0
07/04:20pm 17.9 8.4 4.1 40 6.8 WNW 43 44 23 24 - - 0.0
07/04:10pm 17.8 8.7 3.9 39 6.8 WNW 41 48 22 26 - - 0.0
07/04:00pm 18.4 11.2 5.0 41 6.7 W 32 44 17 24 - - 0.0
07/03:50pm 18.5 11.7 4.9 40 6.8 WNW 30 37 16 20 - - 0.0
07/03:40pm 18.0 10.7 5.3 43 6.4 WNW 33 37 18 20 - - 0.0
07/03:30pm 18.1 8.8 4.9 41 6.6 WNW 43 46 23 25 - - 0.0
07/03:20pm 18.1 9.1 4.7 41 6.7 WNW 41 50 22 27 - - 0.0
07/03:10pm 18.5 9.9 4.7 40 6.9 WNW 39 46 21 25 - - 0.0
07/03:00pm 18.4 9.5 4.9 41 6.8 WNW 41 50 22 27 - - 0.0
07/02:50pm 18.0 8.8 5.5 43 6.3 WNW 43 46 23 25 - - 0.0
07/02:40pm 18.2 9.6 4.9 41 6.6 WNW 39 46 21 25 - - 0.0
07/02:30pm 18.0 9.5 5.0 42 6.5 WNW 39 43 21 23 - - 0.0
07/02:20pm 17.6 9.1 5.2 44 6.2 WNW 39 46 21 25 - - 0.0
07/02:10pm 17.6 8.3 5.2 44 6.2 WNW 43 50 23 27 - - 0.0
07/02:00pm 17.6 9.0 6.6 48 5.7 WNW 41 50 22 27 - - 0.0
07/01:50pm 17.7 9.5 6.4 47 5.8 WNW 39 44 21 24 - - 0.0
07/01:40pm 17.8 9.7 6.9 49 5.7 WNW 39 44 21 24 - - 0.0
07/01:30pm 18.1 11.3 6.8 47 5.9 WNW 32 41 17 22 - - 0.0
07/01:20pm 18.4 11.7 7.5 49 5.7 WNW 32 43 17 23 - - 0.0
07/01:10pm 18.7 11.9 7.6 48 5.9 WNW 33 43 18 23 - - 0.0
07/01:00pm 18.5 11.5 8.5 52 5.4 WNW 35 41 19 22 - - 0.0
07/12:50pm 17.8 10.4 8.4 54 5.0 WNW 37 43 20 23 - - 0.0
07/12:40pm 18.2 11.7 8.9 54 5.0 WNW 33 41 18 22 - - 0.0
07/12:30pm 18.0 10.7 8.7 54 5.0 WNW 37 46 20 25 - - 0.0
07/12:20pm 18.3 11.7 8.5 52 5.3 WNW 33 41 18 22 - - 0.0
07/12:10pm 18.1 12.7 9.6 57 4.6 W 28 32 15 17 - - 0.0
07/12:00pm 18.1 12.6 9.3 56 4.8 WNW 28 32 15 17 - - 0.0
07/11:50am 18.0 12.7 9.9 59 4.5 WNW 28 33 15 18 - - 0.0
07/11:40am 18.1 13.1 10.9 63 4.0 WNW 28 33 15 18 - - 0.0
07/11:30am 18.0 12.1 10.6 62 4.1 WNW 32 35 17 19 - - 0.0
07/11:20am 18.1 12.3 10.9 63 4.0 WNW 32 35 17 19 - - 0.0
07/11:10am 18.0 12.0 10.7 62 4.1 WNW 33 39 18 21 - - 0.0
07/11:00am 16.9 10.6 9.7 62 3.9 WNW 33 35 18 19 - - 0.0
07/10:50am 16.9 10.2 9.5 61 4.0 WNW 35 41 19 22 - - 0.0
07/10:40am 16.9 9.8 9.7 62 3.9 WNW 37 39 20 21 - - 0.0
07/10:30am 17.2 11.0 9.9 62 4.0 WNW 33 39 18 21 - - 0.0
07/10:20am 16.7 10.6 10.3 66 3.5 WNW 33 35 18 19 - - 0.0
07/10:10am 16.1 10.5 10.2 68 3.2 WNW 30 33 16 18 - - 0.0
07/10:00am 16.0 11.3 10.7 71 2.9 WNW 26 30 14 16 - - 0.0
07/09:50am 15.1 10.2 10.1 72 2.7 WNW 26 30 14 16 - - 0.0
07/09:40am 15.3 10.8 10.2 71 2.8 WNW 24 26 13 14 - - 0.0
07/09:30am 15.2 10.6 10.9 75 2.4 WNW 26 30 14 16 - - 0.0
07/09:20am 15.3 10.7 11.1 76 2.3 WNW 26 30 14 16 - - 0.0
07/09:10am 15.1 10.4 10.7 75 2.4 WNW 26 30 14 16 - - 0.0
07/09:00am 15.1 11.0 11.6 79 2.0 W 24 26 13 14 - - 8.6
07/08:50am 14.9 11.6 12.9 88 1.1 W 22 24 12 13 - - 8.6
07/08:40am 14.7 12.4 14.7 100 0.0 WNW 20 24 11 13 - - 8.6
07/08:30am 14.8 12.7 14.8 100 0.0 W 19 20 10 11 - - 8.6
07/08:20am 15.1 13.0 15.1 100 0.0 W 20 24 11 13 - - 8.6
07/08:10am 15.2 12.3 15.2 100 0.0 WNW 24 28 13 15 - - 8.6
07/08:00am 15.2 12.7 15.2 100 0.0 WNW 22 26 12 14 - - 8.6
07/07:50am 15.2 13.1 15.2 100 0.0 WNW 20 24 11 13 - - 8.6
07/07:40am 15.1 13.0 15.1 100 0.0 W 20 24 11 13 - - 8.6
07/07:30am 15.1 13.0 15.1 100 0.0 W 20 24 11 13 - - 8.6
07/07:20am 15.1 13.2 15.1 100 0.0 W 19 22 10 12 - - 8.6
07/07:10am 15.1 13.0 15.1 100 0.0 W 20 22 11 12 - - 8.6
07/07:00am 15.0 12.8 15.0 100 0.0 W 20 24 11 13 - - 8.6
07/06:50am 14.9 12.9 14.9 100 0.0 W 19 22 10 12 - - 8.6
07/06:40am 14.9 13.6 14.9 100 0.0 W 15 19 8 10 - - 8.6
07/06:30am 14.8 13.1 14.8 100 0.0 W 17 19 9 10 - - 8.4
07/06:20am 14.8 13.1 14.8 100 0.0 WNW 17 19 9 10 - - 8.4
07/06:10am 14.8 14.6 14.8 100 0.0 WNW 9 15 5 8 - - 8.4
07/06:00am 15.0 14.9 15.0 100 0.0 WNW 9 13 5 7 - - 8.4
07/05:50am 15.1 14.7 15.1 100 0.0 WNW 11 15 6 8 - - 8.4
07/05:40am 15.2 13.7 15.2 100 0.0 WNW 17 19 9 10 - - 8.4
07/05:30am 15.5 13.7 15.5 100 0.0 WNW 19 19 10 10 - - 8.4
07/05:20am 15.6 13.6 15.6 100 0.0 WNW 20 22 11 12 - - 8.4
07/05:10am 15.6 13.3 15.6 100 0.0 WNW 22 24 12 13 - - 8.4
07/05:00am 15.5 13.5 15.5 100 0.0 NW 20 22 11 12 - - 8.4
07/04:50am 15.5 13.7 15.5 100 0.0 NW 19 20 10 11 - - 8.4
07/04:40am 15.6 14.6 15.5 99 0.1 NW 15 17 8 9 - - 8.4
07/04:30am 15.5 14.8 15.5 100 0.0 NW 13 13 7 7 - - 8.4
07/04:20am 15.4 15.1 15.4 100 0.0 NW 11 11 6 6 - - 8.4
07/04:10am 15.4 15.1 15.4 100 0.0 NW 11 11 6 6 - - 8.4
07/04:00am 15.4 15.1 15.4 100 0.0 NW 11 11 6 6 - - 8.4
07/03:50am 15.4 15.1 15.4 100 0.0 NW 11 11 6 6 - - 8.4
07/03:40am 15.5 15.6 15.4 99 0.1 NW 9 9 5 5 - - 8.4
07/03:30am 15.5 16.0 15.5 100 0.0 NNW 7 7 4 4 - - 8.4
07/03:20am 15.5 16.0 15.5 100 0.0 NNW 7 7 4 4 - - 8.4
07/03:10am 15.6 16.1 15.5 99 0.1 NNW 7 9 4 5 - - 8.4
07/03:00am 15.5 16.0 15.5 100 0.0 NNW 7 7 4 4 - - 8.4
07/02:50am 15.6 16.1 15.6 100 0.0 NNW 7 9 4 5 - - 8.4
07/02:40am 15.6 16.1 15.6 100 0.0 NNW 7 9 4 5 - - 8.4
07/02:30am 15.6 15.7 15.6 100 0.0 NNW 9 9 5 5 - - 8.4
07/02:20am 15.7 16.3 15.7 100 0.0 NNW 7 9 4 5 - - 8.4
07/02:10am 15.8 16.6 15.8 100 0.0 NNW 6 7 3 4 - - 8.4
07/02:00am 16.0 17.2 15.8 99 0.1 NNE 4 6 2 3 - - 8.4
07/01:50am 16.0 16.8 15.9 99 0.1 ENE 6 7 3 4 - - 8.4
07/01:40am 15.9 16.5 15.9 100 0.0 ENE 7 9 4 5 - - 8.4
07/01:30am 15.8 16.4 15.8 100 0.0 ENE 7 9 4 5 - - 8.4
07/01:20am 15.7 16.4 15.7 100 0.0 NE 6 7 3 4 - - 8.4
07/01:10am 15.6 16.1 15.6 100 0.0 ENE 7 9 4 5 - - 8.4
07/01:00am 15.6 16.1 15.6 100 0.0 E 7 9 4 5 - - 8.4
07/12:50am 15.6 15.7 15.6 100 0.0 ESE 9 11 5 6 - - 8.4
07/12:40am 15.7 15.5 15.7 100 0.0 ESE 11 13 6 7 - - 8.4
07/12:30am 15.7 15.5 15.7 100 0.0 ESE 11 13 6 7 - - 8.4
07/12:20am 15.8 15.6 15.8 100 0.0 ESE 11 13 6 7 - - 8.4
07/12:10am 15.9 16.2 15.9 100 0.0 ESE 9 11 5 6 - - 8.2
07/12:00am 15.9 16.7 15.9 100 0.0 ENE 6 7 3 4 - - 7.6
 
Date/Time
EST
Temp
°C
App
Temp
°C
Dew
Point
°C
Rel
Hum
%
Delta-T
°C
Wind Press
QNH
hPa
Press
MSL
hPa
Rain since
9am
mm
Dir  Spd
km/h
Gust
km/h
Spd
kts
Gust
kts
06/11:50pm 15.9 16.7 15.9 100 0.0 SE 6 11 3 6 - - 7.0
06/11:40pm 16.0 16.7 16.0 100 0.0 S 7 11 4 6 - - 6.8
06/11:30pm 16.0 16.7 16.0 100 0.0 SSW 7 9 4 5 - - 6.8
06/11:20pm 16.0 16.7 16.0 100 0.0 S 7 9 4 5 - - 6.8
06/11:10pm 16.0 16.3 16.0 100 0.0 SSE 9 11 5 6 - - 6.8
06/11:00pm 16.0 15.9 16.0 100 0.0 SE 11 13 6 7 - - 6.8
06/10:50pm 16.0 15.9 16.0 100 0.0 SE 11 13 6 7 - - 6.8
06/10:40pm 16.0 15.5 16.0 100 0.0 SE 13 15 7 8 - - 6.8
06/10:30pm 16.0 15.1 15.9 99 0.1 SE 15 17 8 9 - - 6.8
06/10:20pm 16.0 15.5 16.0 100 0.0 ESE 13 15 7 8 - - 6.8
06/10:10pm 16.1 16.0 16.1 100 0.0 ESE 11 13 6 7 - - 6.8
06/10:00pm 16.1 16.0 16.1 100 0.0 SE 11 13 6 7 - - 6.8
06/09:50pm 16.2 16.2 16.2 100 0.0 ESE 11 13 6 7 - - 6.8
06/09:40pm 16.2 16.2 16.2 100 0.0 SE 11 13 6 7 - - 6.8
06/09:30pm 16.3 15.9 16.3 100 0.0 ESE 13 15 7 8 - - 6.8
06/09:20pm 16.3 15.9 16.3 100 0.0 ESE 13 15 7 8 - - 6.8

Other formats

Comma delimited format used in spreadsheet applications
http://www.bom.gov.au/fwo/IDQ60801/IDQ60801.99128.axf

JavaScript Object Notation format (JSON) in row-major order
http://www.bom.gov.au/fwo/IDQ60801/IDQ60801.99128.json

Data quality

Most of these data are generated automatically and are frequently updated. Quality checks on data are not normally performed. It is possible for incorrect values to appear. Refer to information at About Latest Weather Observations and please check the disclaimer before using these data.